Hydro-Met Data Report Part 1
Issued by NWS Binghamton, NY

Home | Current Version | Previous Version | Text Only | Print | Product List | Glossary On
Versions: 1 2 3 4 5 6 7 8 9 10 11 12 13 14 15 16 17 18 19 20 21 22 23 24 25 26 27 28 29 30 31 32 33 34 35 36 37 38 39 40 41 42 43 44 45 46 47 48 49 50
172
SRUS51 KBGM 301306
RR1BGM

Hydrometeorological Data Report
National Weather Service Binghamton NY

.A GNVN6 20160830 E DH0800 /HPIRZ 445.42 : Geneva BCD
.A GNVN6 20160830 E DH0800 /PP M : Geneva Precip
.A ICYN6 20160830 E DH0800 /HPIRZ 382.68 : Ithaca Terminal NGVD29
.A SCBN6 20160830 E DH0800 /QRIRZ 0.000 : Lock CS-1 Cayuga (Mud Lock) Discharge KCFS. (CFS = 0.000)
.A CAYN6 20160830 E DH0800 /HPIRZ 383.60 : Lock CS-1 Cayuga (Mud Lock) Upper Gage EL. BCD
.A CAYN6 20160830 E DH0800 /PP 0.00 : Lock CS-1 Cayuga (Mud Lock) Precip.
.A CLYN6 20160830 E DH0800 /HPIRZ 385.02 : Lock E-26 Clyde Upper BCD 386.10
.A CYBN6 20160830 E DH0800 /HPIRZ 380.32 : Lock E-26 Clyde Lower BCD 381.40
.A CLYN6 20160830 E DH0800 /QUIRZ 0.408 : Clyde Lock E-26 Discharge KCFS. (CFS = 408.16)
.A MAYN6 20160830 E DH0800 /HPIRZ 381.00 : Mays Point Lock E-25 Upper BCD 381.00
.A MAZN6 20160830 E DH0800 /HPIRZ 374.00 : Mays Point Lock E-25 Lower BCD 374.00
.A MAYN6 20160830 E DH0800 /PP 0.00 : Mays Point Precip 0.00
.A OWSN6 20160830 E DH0800 /QUIRZ 0.039 : Owasco Lake Discharge KCFS. (CFS = 39.00)
.A CRXN6 20160830 E DH0800 /HPIRZ 373.55 : Cross Lake BCD 374.60
.A CRXN6 20160830 E DH0800 /PP M : Cross Lake Precip M
.A BAAN6 20160830 E DH0800 /HPIRZ 372.97 :Baldwinsville  E-24 UP BCD 374.05
.A BAXN6 20160830 E DH0800 /HPIRZ 362.97 :Baldwinsville  E-24 LO BCD 364.05
.A BALN6 20160830 E DH0800 /HPIRZ M :Baldwinsville USGS M FT
.A BALN6 20160830 E DH0800 /QUIRZ 0.23 :Baldwinsville USGS Discharge KCFS. (CFS = 232.00)
.A BALN6 20160830 E DH0800 /PP 0.00 : Balwinsville Lock E-24 Precip 0.00
.A ONLN6 20160830 E DH0800 /HPIRZ 362.11 : Onondaga Lake BCD 363.12
.A CLEN6 20160830 E DH0800 /HPIRZ 369.86 : Cleveland BCD 371.39
.A CLEN6 20160830 E DH0800 /PP M : Cleveland Precip M
.A CAUN6 20160830 E DH0800 /HPIRZ 370.04 : Brewerton Lock E-23 UPPER BCD 371.10
.A BWTN6 20160830 E DH0800 /HPIRZ 362.74 : Brewerton Lock E-23 LOWER BCD 363.80
.A BWTN6 20160830 E DH0800 /QRIRZ 0.648 : Brewerton Lock E-23 DISCHARGE KCFS. (CFS = 648.00 )
.A BWTN6 20160830 E DH0800 /HPIRP 362.95 : Brewerton USGS 362.95
.A BWTN6 20160830 E DH0800 /SF 0.00 : Brewerton Snowfall 0.00
.A BWTN6 20160830 E DH0800 /PP 0.00 : Brewerton Precip 0.00
.A PXAN6 20160830 E DH0800 /HPIRZ 362.75 : Phoenix Lock O-1 Upper BCD 363.80
.A PXBN6 20160830 E DH0800 /HPIRZ 353.35 : Phoenix Lock O-1 Lower BCD 354.40
.A PXAN6 20160830 E DH0800 /QUIRZ 1.087 : Phoenix Lock O-1 Discharge KCFS. (CFS = 1087.00 )



USA.gov is the U.S. government's official web portal to all federal, state and local government web resources and services.